Location: Unspecified
(0.0000°N, 0.0000°E)
Time: 08:01:12
(UTC+00:00)

Vanguard 2 - Pass Details

Date: 29 October 2021
Orbit: 554 x 2936 km, 32.9° (Epoch: 06 December)

Event Time Altitude Azimuth Distance (km) Brightness Sun altitude
Rises 00:38:08 0° 286° (WNW) 6,705 - -71.0°
Reaches altitude 10° 00:46:20 10° 307° (NW) 5,387 - -69.5°
Maximum altitude 00:53:30 14° 335° (NNW) 4,591 - -68.1°
Drops below altitude 10° 00:59:38 10° 4° (N) 4,470 - -66.9°
Sets 01:05:13 0° 28° (NNE) 4,940 - -65.7°
